Orbital Elements at Epoch 2459000.5 (2020-May-31.0) TDB
Reference: JPL 13 (heliocentric ecliptic J2000)
Element | Value | Uncertainty (1-sigma) | Units |
e | .02283871870444616 | 4.8498e-08 | |
a | 2.423301337292886 | 1.8202e-08 | au |
q | 2.367956239714345 | 1.2554e-07 | au |
i | 5.557906699169087 | 5.0747e-06 | deg |
node | 215.8429949319424 | 5.4356e-05 | deg |
peri | 3.450022294177427 | 0.00013008 | deg |
M | 315.261246166672 | 0.00011771 | deg |
tp | 2459171.734370692594 (2020-Nov-18.23437069) | 0.00045044 | TDB |
period | 1377.87417322769 3.77 | 1.5524e-05 4.25e-08 | d yr |
n | .261272042828624 | 2.9437e-09 | deg/d |
Q | 2.478646434871426 | 1.8618e-08 | au |
|
| | Orbit Determination Parameters
Additional Information
|